Regional Weather Roundup
Issued by NWS

Home | Current Version | Previous Version | Graphics & Text | Print | Product List | Glossary On
Versions: 1 2 3 4 5 6 7 8 9 10 11 12 13 14 15 16 17 18 19 20 21 22 23 24 25 26 27 28 29 30 31 32 33 34 35 36 37 38 39 40 41 42 43 44 45 46 47 48 49 50
000
ASUS45 KBOI 102310
RWRID

IDAHO REGIONAL WEATHER ROUNDUP
NATIONAL WEATHER SERVICE BOISE ID
400 PM MST WED FEB 10 2016

NOTE: "FAIR" INDICATES FEW OR NO CLOUDS BELOW 12000 FEET
WITH NO SIGNIFICANT WEATHER AND/OR OBSTRUCTIONS TO VISIBILITY

IDZ012-014-110000-
SOUTHWEST IDAHO


CITY           SKY/WX    TMP DP  RH WIND       PRES   REMARKS
BOISE          MOSUNNY   42  31  64 CALM      30.38F
CALDWELL       MOSUNNY   43  32  65 N5        30.42F
$$

IDZ016-017-110000-
SOUTHCENTRAL IDAHO


CITY           SKY/WX    TMP DP  RH WIND       PRES   REMARKS
BURLEY         SUNNY     42  32  67 NW5       30.36R
JEROME         MOSUNNY   36  28  73 NE7       30.38S WCI  30
TWIN FALLS     SUNNY     43  32  65 N3        30.37F
$$

IDZ019>023-110000-
SOUTHEAST IDAHO


CITY           SKY/WX    TMP DP  RH WIND       PRES   REMARKS
IDAHO FALLS    CLOUDY    25  21  85 N6        30.40R WCI  18
POCATELLO      SUNNY     36  26  67 N3        30.39F
REXBURG        CLOUDY    32  23  69 NE5       30.39R WCI  27
$$

IDZ006-010-011-018-031-032-110000-
CENTRAL IDAHO MOUNTAINS


CITY           SKY/WX    TMP DP  RH WIND       PRES   REMARKS
MCCALL         PTSUNNY   38  28  67 CALM      30.30F
HAILEY         MOSUNNY   34  27  75 SE8       30.37S WCI  27
STANLEY          N/A     37  19  48 CALM      30.34F
SALMON         CLOUDY    21  19  93 CALM      30.38F
CHALLIS        SUNNY     26  18  71 CALM      30.35S
$$

IDZ002-004-006-007-026-110000-
NORTHERN IDAHO


CITY           SKY/WX    TMP DP  RH WIND       PRES   REMARKS
LEWISTON       CLOUDY    52  36  54 W3        30.27R
LOWELL           N/A     48  40  73 CALM      30.25F
COEUR D`ALENE  CLOUDY    45  36  70 N6        30.23R
MULLAN PASS    CLOUDY    41  26  55 VRB6      30.23S
$$



USA.gov is the U.S. government's official web portal to all federal, state and local government web resources and services.